[[{"header":{"parameterUnit":"m.s-1","parameterCategory":1,"la1":30.2991,"la2":30.254,"lo1":-89.0895,"lo2":-89.0444,"dy":0.0017,"dx":0.0017,"nx":28,"ny":28,"refTime":"2024-10-14T09:00:00:Z","depth":0,"parameterNumber":2,"parameterNumberName":"U-component_of_WINDS"},"data":[0,0,0,0,0,0,0,0,0,0,0,0,0,0,0,0,0,0,0,0,0,0,0,0,0,0,0,0,0,0,0,0,0,0,0,0,0,0,0,0,0,0,0,0,0,0,0,0,0,0,0,0,0,0,0,0,0,0,-1.7361,-1.7363,0,-1.7558,-1.7561,-1.7563,-1.7613,-1.7612,-1.7611,-1.761,-1.7811,-1.7817,-1.7823,0,0,0,0,0,0,0,0,0,0,0,0,0,-1.7028,-1.7034,-1.7361,-1.7364,-1.7366,-1.7558,-1.7561,-1.7563,-1.7614,-1.7612,-1.7611,-1.7609,-1.7809,-1.7816,-1.7824,0,0,0,0,0,0,0,0,0,0,0,0,0,-1.7194,-1.7036,-1.7361,-1.7414,-1.7421,-1.7557,-1.7561,-1.7564,-1.7614,-1.7612,-1.761,-1.7608,-1.7806,-1.7815,-1.7825,-1.7922,0,0,-1.7855,-1.7859,0,0,0,0,0,0,0,0,-1.7184,-1.7206,-1.7404,-1.7411,-1.7419,-1.7559,-1.7517,-1.7684,-1.7614,-1.7541,-1.761,-1.7608,-1.7729,-1.7744,-1.7785,-1.7931,-1.794,-1.7856,-1.7862,-1.7866,-1.7869,0,0,0,0,0,0,0,-1.7173,-1.7198,-1.7439,-1.7407,-1.7416,-1.7428,-1.745,-1.7549,-1.7642,-1.7547,-1.7551,-1.7574,-1.7732,-1.7776,-1.7791,-1.7943,-1.7855,-1.7864,-1.787,-1.7874,-1.8179,-1.8181,0,0,0,0,0,0,-1.7152,-1.7188,-1.7433,-1.7445,-1.7295,-1.7436,-1.746,-1.7516,-1.7642,-1.7659,-1.7575,-1.7575,-1.776,-1.7779,-1.7798,-1.7921,-1.7866,-1.7875,-1.788,-1.8177,-1.818,-1.8182,0,0,0,0,0,0,-1.7145,-1.7173,-1.7425,-1.7318,-1.7351,-1.7444,-1.7506,-1.7521,-1.7565,-1.7663,-1.768,-1.7603,-1.776,-1.7784,-1.7891,-1.7928,-1.7879,-1.7888,-1.8174,-1.8178,-1.8181,-1.8166,0,0,0,0,0,0,-1.7135,-1.7171,-1.7208,-1.7318,-1.7356,-1.7515,-1.7509,-1.7526,-1.7582,-1.7584,-1.7693,-1.771,-1.776,-1.7876,-1.7901,-1.7941,-1.7896,-1.8171,-1.8176,-1.818,-1.8164,-1.8169,-1.8173,0,0,0,0,0,-1.7123,-1.7196,-1.721,-1.7239,-1.7405,-1.7517,-1.7539,-1.7596,-1.7584,-1.7623,-1.7686,-1.7706,-1.792,-1.7887,-1.7915,-1.7958,-1.8169,-1.8175,-1.818,-1.8162,-1.8168,-1.8173,0,0,0,0,0,0,-1.7088,-1.7211,-1.7228,-1.7339,-1.7417,-1.7525,-1.7576,-1.76,-1.7683,-1.7681,-1.7748,-1.7772,-1.7875,-1.7927,-1.7888,-1.8059,-1.8045,-1.8056,-1.8021,-1.8028,-1.8032,-1.8018,-1.7904,0,0,0,0,0,-1.7093,-1.7173,-1.7277,-1.7364,-1.7403,-1.7483,-1.7533,-1.757,-1.7654,-1.7687,-1.7758,-1.7838,-1.7924,-1.7978,-1.8062,-1.8171,-1.8196,-1.8215,-1.8219,-1.8222,-1.8232,-1.8294,-1.8304,-1.8199,-1.8199,-1.8199,0,0,-1.7104,-1.7182,-1.7228,-1.7359,-1.7424,-1.7506,-1.751,-1.7596,-1.7658,-1.77,-1.7806,-1.7861,-1.7954,-1.8063,-1.8114,-1.811,-1.8266,-1.8229,-1.8231,-1.8239,-1.83,-1.831,-1.8319,-1.8203,-1.8202,-1.8201,0,0,-1.7167,-1.7233,-1.7315,-1.738,-1.7478,-1.7531,-1.755,-1.7655,-1.7693,-1.78,-1.7834,-1.7908,-1.8053,-1.8119,-1.8172,-1.826,-1.8281,-1.8285,-1.8309,-1.8369,-1.8377,-1.8385,-1.8418,-1.8428,-1.8293,-1.8293,-1.8293,0,-1.7169,-1.7294,-1.7353,-1.7439,-1.7495,-1.7537,-1.762,-1.768,-1.7801,-1.7839,-1.7832,-1.8016,-1.8082,-1.8207,-1.8229,-1.827,-1.8294,-1.8274,-1.8371,-1.838,-1.8388,-1.842,-1.8432,-1.8293,-1.8293,-1.8293,-1.8293,0,-1.7292,-1.7378,-1.7432,-1.7548,-1.7611,-1.7694,-1.7766,-1.7822,-1.7853,-1.7907,-1.8016,-1.8096,-1.8198,-1.823,-1.8261,-1.836,-1.8354,-1.8358,-1.8345,-1.8397,-1.8428,-1.844,-1.8293,-1.8293,-1.8293,-1.8293,0,0,-1.734,-1.7487,-1.7506,-1.756,-1.7671,-1.7739,-1.7824,-1.7924,-1.7971,-1.8053,-1.8127,-1.8249,-1.8254,-1.8313,-1.8352,-1.8405,-1.8471,-1.8403,-1.8406,-1.8414,-1.8586,-1.8582,-1.8596,-1.8485,-1.8488,-1.849,-1.8578,0,-1.7417,-1.7572,-1.7628,-1.7755,-1.7836,-1.7877,-1.7951,-1.8028,-1.8079,-1.8156,-1.8213,-1.8299,-1.8298,-1.8335,-1.8388,-1.8451,-1.8506,-1.8446,-1.8555,-1.8558,-1.8532,-1.8612,-1.8609,-1.8688,-1.8591,-1.8593,-1.8594,0,-1.7529,-1.7613,-1.7748,-1.7851,-1.7887,-1.7953,-1.8049,-1.8121,-1.8209,-1.8243,-1.8309,-1.8345,-1.8436,-1.8416,-1.8543,-1.85,-1.8548,-1.8586,-1.859,-1.8603,-1.858,-1.8628,-1.8715,-1.8727,-1.8614,-1.8612,-1.8611,0,-1.7552,-1.7698,-1.7798,-1.7843,-1.7964,-1.801,-1.8063,-1.8149,-1.8205,-1.8289,-1.8326,-1.8419,-1.847,-1.8541,-1.8601,-1.8581,-1.8722,-1.8708,-1.8754,-1.8752,-1.8783,-1.878,-1.8879,-1.8811,-1.8811,-1.8811,-1.8811,0,-1.7634,-1.7715,-1.781,-1.7872,-1.7965,-1.8027,-1.8117,-1.8172,-1.8248,-1.8322,-1.8362,-1.843,-1.8504,-1.8582,-1.8628,-1.8727,-1.8749,-1.878,-1.8791,-1.8777,-1.8773,-1.881,-1.8806,-1.8814,-1.8813,-1.8813,-1.8812,0,-1.7675,-1.7742,-1.7854,-1.796,-1.7988,-1.8052,-1.8143,-1.8205,-1.8258,-1.835,-1.8375,-1.846,-1.8553,-1.8619,-1.8739,-1.8771,-1.8877,-1.8887,-1.8847,-1.8853,-1.8896,-1.8892,-1.9023,-1.9044,-1.8961,-1.8962,-1.8962,0,-1.7724,-1.7787,-1.79,-1.7953,-1.8005,-1.8089,-1.8147,-1.8211,-1.827,-1.8375,-1.8424,-1.852,-1.86,-1.8747,-1.8819,-1.8911,-1.8925,-1.8965,-1.8939,-1.8923,-1.8927,-1.8923,-1.893,-1.8969,-1.897,-1.897,-1.897,0,-1.7803,-1.7833,-1.7915,-1.801,-1.8078,-1.8155,-1.8233,-1.8273,-1.8351,-1.8415,-1.8511,-1.8573,-1.8696,-1.8791,-1.889,-1.8945,-1.8971,-1.8978,-1.8994,-1.898,-1.8955,-1.897,-1.8859,-1.8975,-1.8974,-1.8974,-1.8974,-1.8974,-1.7851,-1.791,-1.7999,-1.8089,-1.8154,-1.8226,-1.8289,-1.8351,-1.8432,-1.8538,-1.857,-1.867,-1.8757,-1.8893,-1.8948,-1.9027,-1.9025,-1.9047,-1.9053,-1.9058,-1.9058,-1.8941,-1.9045,-1.9045,-1.9045,-1.9045,-1.9045,0,-1.7933,-1.7993,-1.8075,-1.8183,-1.8254,-1.8272,-1.8359,-1.8418,-1.8505,-1.8584,-1.8662,-1.8773,-1.8866,-1.8945,-1.9041,-1.9089,-1.9103,-1.9112,-1.9109,-1.9122,-1.9054,-1.9032,-1.9099,-1.9099,-1.9099,-1.9098,-1.9098,-1.9098,-1.7985,-1.8086,-1.8126,-1.826,-1.8319,-1.8418,-1.8466,-1.8532,-1.8595,-1.8717,-1.8795,-1.8846,-1.8925,-1.9027,-1.9112,-1.9133,-1.9167,-1.9173,-1.9197,-1.9132,-1.9126,-1.912,-1.91,-1.918,-1.918,-1.9258,-1.9259,-1.9259]},{"header":{"parameterUnit":"m.s-1","parameterCategory":1,"la1":30.2991,"la2":30.254,"lo1":-89.0895,"lo2":-89.0444,"dy":0.0017,"dx":0.0017,"nx":28,"ny":28,"refTime":"2024-10-14T09:00:00:Z","depth":0,"parameterNumber":3,"parameterNumberName":"V-component_of_WINDS"},"data":[0,0,0,0,0,0,0,0,0,0,0,0,0,0,0,0,0,0,0,0,0,0,0,0,0,0,0,0,0,0,0,0,0,0,0,0,0,0,0,0,0,0,0,0,0,0,0,0,0,0,0,0,0,0,0,0,0,0,-1.995,-1.9951,0,-2.0093,-2.0095,-2.0096,-2.0122,-2.0121,-2.0119,-2.0118,-2.0263,-2.0268,-2.0273,0,0,0,0,0,0,0,0,0,0,0,0,0,-1.9695,-1.97,-1.995,-1.9951,-1.9953,-2.0093,-2.0095,-2.0097,-2.0122,-2.0121,-2.0119,-2.0118,-2.0261,-2.0267,-2.0273,0,0,0,0,0,0,0,0,0,0,0,0,0,-1.9819,-1.9701,-1.9949,-1.9983,-1.9987,-2.0093,-2.0095,-2.0097,-2.0122,-2.0121,-2.0119,-2.0117,-2.0259,-2.0267,-2.0274,-2.0356,0,0,-2.0297,-2.03,0,0,0,0,0,0,0,0,-1.9812,-1.9828,-1.9976,-1.9981,-1.9986,-2.0088,-2.0058,-2.0184,-2.0123,-2.0071,-2.0118,-2.0116,-2.0206,-2.0218,-2.0249,-2.0362,-2.0369,-2.0297,-2.0302,-2.0305,-2.0307,0,0,0,0,0,0,0,-1.9803,-1.9822,-2.0006,-1.9978,-1.9984,-1.999,-2.0005,-2.0082,-2.0147,-2.0075,-2.0077,-2.0094,-2.0208,-2.0241,-2.0252,-2.0371,-2.0297,-2.0304,-2.0308,-2.0311,-2.056,-2.0562,0,0,0,0,0,0,-1.9789,-1.9815,-2.0002,-2.0011,-1.9893,-1.9996,-2.0013,-2.0057,-2.0146,-2.0158,-2.0096,-2.0095,-2.0229,-2.0243,-2.0257,-2.036,-2.0305,-2.0312,-2.0316,-2.0558,-2.056,-2.0562,0,0,0,0,0,0,-1.9783,-1.9805,-1.9996,-1.9913,-1.9938,-2.0002,-2.0051,-2.0061,-2.0094,-2.0161,-2.0173,-2.0118,-2.0229,-2.0247,-2.0331,-2.0365,-2.0315,-2.0322,-2.0555,-2.0558,-2.0561,-2.0565,0,0,0,0,0,0,-1.9776,-1.9803,-1.9835,-1.9914,-1.9942,-2.0068,-2.0053,-2.0065,-2.0107,-2.0107,-2.0185,-2.0196,-2.0229,-2.032,-2.0339,-2.0374,-2.0328,-2.0552,-2.0556,-2.056,-2.0562,-2.0568,-2.0572,0,0,0,0,0,-1.9767,-1.983,-1.9837,-1.9859,-1.9984,-2.007,-2.0087,-2.0123,-2.0109,-2.0142,-2.0185,-2.0194,-2.0358,-2.0329,-2.035,-2.0388,-2.055,-2.0555,-2.056,-2.0559,-2.0566,-2.0572,0,0,0,0,0,0,-1.9753,-1.9841,-1.985,-1.994,-1.9998,-2.0074,-2.0117,-2.0129,-2.0191,-2.0189,-2.0231,-2.0248,-2.0331,-2.0368,-2.0333,-2.0472,-2.0453,-2.0462,-2.0446,-2.0453,-2.0458,-2.0448,-2.0334,0,0,0,0,0,-1.976,-1.9824,-1.9897,-1.997,-1.9998,-2.0052,-2.0091,-2.0115,-2.0176,-2.02,-2.0249,-2.0308,-2.0373,-2.0414,-2.0478,-2.0567,-2.0584,-2.0604,-2.0609,-2.0613,-2.0621,-2.0671,-2.0681,-2.0578,-2.0578,-2.0578,0,0,-1.9777,-1.9832,-1.987,-1.9968,-2.0016,-2.008,-2.0073,-2.0141,-2.0189,-2.021,-2.0294,-2.0332,-2.0399,-2.0487,-2.0528,-2.052,-2.0653,-2.0619,-2.0622,-2.0628,-2.0677,-2.0687,-2.0695,-2.0581,-2.0581,-2.058,0,0,-1.9839,-1.9888,-1.9954,-2.0002,-2.0074,-2.011,-2.0126,-2.0201,-2.0227,-2.0312,-2.0329,-2.0386,-2.0497,-2.0545,-2.0584,-2.0664,-2.0674,-2.0683,-2.0712,-2.076,-2.0769,-2.0776,-2.0806,-2.0816,-2.0691,-2.0691,-2.0691,0,-1.985,-1.9949,-1.9987,-2.0055,-2.0098,-2.012,-2.0188,-2.0232,-2.0321,-2.0349,-2.0339,-2.0479,-2.0526,-2.0626,-2.0646,-2.0676,-2.0695,-2.0675,-2.0764,-2.0772,-2.078,-2.0809,-2.082,-2.0692,-2.0691,-2.0691,-2.0691,0,-1.9959,-2.0027,-2.0072,-2.0158,-2.0206,-2.0273,-2.0321,-2.0365,-2.0383,-2.042,-2.0506,-2.0563,-2.0639,-2.0663,-2.0682,-2.0766,-2.0759,-2.0756,-2.0738,-2.079,-2.0818,-2.0829,-2.0693,-2.0692,-2.0692,-2.0692,0,0,-2.0018,-2.0125,-2.0141,-2.0181,-2.0261,-2.0314,-2.0382,-2.0457,-2.0494,-2.0554,-2.0613,-2.0706,-2.0704,-2.0748,-2.0772,-2.0814,-2.0876,-2.0807,-2.0809,-2.0818,-2.0972,-2.0975,-2.0987,-2.0882,-2.0885,-2.0886,-2.0967,0,-2.0091,-2.0215,-2.0251,-2.0355,-2.0418,-2.044,-2.05,-2.0555,-2.0591,-2.065,-2.0688,-2.0754,-2.0746,-2.0773,-2.0816,-2.0859,-2.0907,-2.0854,-2.0937,-2.094,-2.0921,-2.1002,-2.1005,-2.1078,-2.0978,-2.098,-2.0981,0,-2.0194,-2.0257,-2.0368,-2.0441,-2.0469,-2.0522,-2.0594,-2.0649,-2.0713,-2.0736,-2.0785,-2.0805,-2.0876,-2.0853,-2.0952,-2.0915,-2.0951,-2.0977,-2.0981,-2.0991,-2.0965,-2.1015,-2.1102,-2.1114,-2.0999,-2.0997,-2.0996,0,-2.0227,-2.034,-2.0421,-2.0454,-2.0541,-2.0578,-2.0616,-2.0678,-2.0721,-2.0783,-2.0811,-2.088,-2.0918,-2.0971,-2.1009,-2.0989,-2.1105,-2.1085,-2.1127,-2.1126,-2.1151,-2.115,-2.1247,-2.1172,-2.1172,-2.1172,-2.1171,0,-2.0306,-2.0373,-2.0437,-2.0487,-2.0563,-2.0603,-2.0676,-2.0715,-2.077,-2.0827,-2.0849,-2.0903,-2.095,-2.1009,-2.1039,-2.1117,-2.1133,-2.1154,-2.1161,-2.1153,-2.115,-2.1178,-2.1174,-2.1175,-2.1174,-2.1173,-2.1173,0,-2.0357,-2.0403,-2.0493,-2.0568,-2.0589,-2.0641,-2.0706,-2.0755,-2.0791,-2.0863,-2.0882,-2.0939,-2.101,-2.1053,-2.1143,-2.1163,-2.1249,-2.1254,-2.1228,-2.1232,-2.1271,-2.1268,-2.1391,-2.1409,-2.1321,-2.1322,-2.1322,0,-2.0406,-2.0458,-2.0539,-2.058,-2.0619,-2.0683,-2.0728,-2.0769,-2.0814,-2.089,-2.093,-2.1002,-2.1063,-2.1175,-2.1224,-2.1292,-2.13,-2.1338,-2.131,-2.13,-2.1302,-2.1299,-2.1305,-2.1343,-2.1344,-2.1344,-2.1345,0,-2.0487,-2.0507,-2.057,-2.0642,-2.0694,-2.0752,-2.0809,-2.0841,-2.0892,-2.0941,-2.1015,-2.1061,-2.1153,-2.1225,-2.1298,-2.1336,-2.1349,-2.1353,-2.1367,-2.1359,-2.1343,-2.1353,-2.1242,-2.1351,-2.135,-2.135,-2.1349,-2.1349,-2.0539,-2.0587,-2.0652,-2.0722,-2.077,-2.0823,-2.0873,-2.0916,-2.0978,-2.1057,-2.1077,-2.1154,-2.1216,-2.1315,-2.1355,-2.1416,-2.141,-2.1429,-2.1434,-2.1438,-2.144,-2.1332,-2.1429,-2.1429,-2.1428,-2.1428,-2.1428,0,-2.0622,-2.0665,-2.0729,-2.081,-2.0865,-2.0873,-2.0937,-2.0982,-2.105,-2.1107,-2.1166,-2.1251,-2.132,-2.1375,-2.1446,-2.1484,-2.1492,-2.1501,-2.15,-2.1508,-2.1441,-2.1423,-2.1494,-2.1494,-2.1494,-2.1494,-2.1494,-2.1494,-2.0672,-2.0754,-2.0782,-2.0887,-2.093,-2.1006,-2.1042,-2.1092,-2.1138,-2.1231,-2.129,-2.1325,-2.1381,-2.1456,-2.1521,-2.1535,-2.156,-2.1569,-2.1584,-2.152,-2.1513,-2.1506,-2.149,-2.1574,-2.1574,-2.1647,-2.1648,-2.1649]}]]